Hourly Weather Roundup
Issued by NWS Central Illinois

Home | Current Version | Previous Version | Text Only | Print | Product List | Glossary On
Versions: 1 2 3 4 5 6 7 8 9 10 11 12 13 14 15 16 17 18 19 20 21 22 23 24 25 26 27 28 29 30 31 32 33 34 35 36 37 38 39 40 41 42 43 44 45 46 47 48 49 50
000
NZUS43 KILX 060010
HWRILX

AREA WEATHER ROUNDUP
NATIONAL WEATHER SERVICE, LINCOLN IL
600 PM CST THU MAR 05 2015


CITY           SKY/WX    TMP DP  RH WIND       PRES   REMARKS
BLOOMINGTON    CLEAR     12   1  61 N8        30.54F WCI   0
6HR MIN TEMP:  12; 6HR MAX TEMP:  16;

CHAMPAIGN      CLEAR      7  -2  66 N7        30.54R WCI  -5
6HR MIN TEMP:   5; 6HR MAX TEMP:  16;

DECATUR        CLEAR     13   0  56 NW6       30.56R WCI   4
6HR MIN TEMP:  13; 6HR MAX TEMP:  16;

EFFINGHAM      CLEAR     15   0  52 NW5       30.59R WCI   7
FLORA          CLEAR     17   4  57 NW7       30.59R WCI   7
6HR MIN TEMP:  17; 6HR MAX TEMP:  20;

GALESBURG      CLEAR     10   0  64 NW3       30.54S
JACKSONVILLE   CLEAR     15   1  52 NW3       30.57R
6HR MIN TEMP:  14; 6HR MAX TEMP:  19;

LACON          CLEAR     11  -1  58 CALM      30.56S
6HR MIN TEMP:  11; 6HR MAX TEMP:  14;

LAWRENCEVILLE  CLEAR     16   4  59 N10       30.58R WCI   4
6HR MIN TEMP:  16; 6HR MAX TEMP:  23;

LITCHFIELD     FAIR      13   2  60 N6        30.57R WCI   4
$$


CITY           SKY/WX    TMP DP  RH WIND       PRES   REMARKS
LINCOLN        CLEAR     15   1  55 W3        30.59R
6HR MIN TEMP:  15; 6HR MAX TEMP:  19;

MACOMB         CLEAR     11   4  72 CALM      30.58S
MATTOON        CLEAR     11   1  64 NW8       30.55R WCI  -1
6HR MIN TEMP:  11; 6HR MAX TEMP:  17;

MT CARMEL AP   CLEAR     19   5  53 NW7       30.57R WCI  10
OLNEY-NOBLE AP CLEAR     14   3  62 N7        30.59R WCI   4
PARIS          CLEAR     11   3  71 NW5       30.57R WCI   3
6HR MIN TEMP:  11; 6HR MAX TEMP:  18;

PEORIA         CLEAR     13  -1  54 W6        30.56S WCI   4
6HR MIN TEMP:  13; 6HR MAX TEMP:  17;

PONTIAC        CLEAR     10   2  69 W6        30.57R WCI   0
RANTOUL        CLEAR     11   2  68 NW6       30.55R WCI   1
6HR MIN TEMP:  11; 6HR MAX TEMP:  17;

ROBINSON       CLEAR     13   4  65 NW7       30.59R WCI   3
6HR MIN TEMP:  13; 6HR MAX TEMP:  20;

SPRINGFIELD    CLEAR     14   0  53 NE6       30.58R WCI   5
6HR MIN TEMP:  14; 6HR MAX TEMP:  19; 6HR PCP: TRACE;

TAYLORVILLE    CLEAR     12   3  67 CALM      30.59R
$$

...REGIONAL REPORTS...


CITY           SKY/WX    TMP DP  RH WIND       PRES   REMARKS
CHICAGO O`HARE CLEAR     13  -2  51 W10       30.50R WCI   0
KANKAKEE       CLEAR     11   2  68 W8        30.56R WCI  -1
MOLINE         CLEAR     12  -2  53 NW6       30.55R WCI   3
MOUNT VERNON   CLEAR     18   1  49 CALM      30.59R
PITTSFIELD     CLEAR     17   4  56 N3        30.57R
QUINCY         CLEAR     17   2  51 N3        30.55R
ROCKFORD       CLEAR     10  -4  53 NW5       30.53R WCI   2
$$


CITY           SKY/WX    TMP DP  RH WIND       PRES   REMARKS
BURLINGTON     CLEAR     14   0  53 N3        30.54S
CEDAR RAPIDS   CLEAR      7  -1  70 NW5       30.52S WCI  -2
DES MOINES     CLEAR     21   1  41 S6        30.48F WCI  13
KIRKSVILLE     CLEAR     23   2  40 CALM      30.51S
OTTUMWA        CLEAR     17   2  51 NE5       30.52S WCI  10
ST LOUIS       CLEAR     22   5  48 N6        30.57R WCI  14
$$


CITY           SKY/WX    TMP DP  RH WIND       PRES   REMARKS
TERRE HAUTE    CLEAR     13   2  61 W9        30.55R WCI   1
EVANSVILLE     CLEAR     19   4  51 NW7       30.58R WCI  10
INDIANAPOLIS   PTCLDY    16   6  65 NW9       30.50R WCI   4
LAFAYETTE      CLEAR     11   1  64 W8        30.54R WCI  -1
MADISON        CLEAR     13  -4  46 SW6       30.47R WCI   4
MILWAUKEE      CLEAR     14  -6  40 W7        30.49R WCI   4
$$




USA.gov is the U.S. government's official web portal to all federal, state and local government web resources and services.